Regional Weather Roundup
Issued by NWS Goodland, KS

Home | Current Version | Previous Version | Text Only | Print | Product List | Glossary On
Versions: 1 2 3 4 5 6 7 8 9 10 11 12 13 14 15 16 17 18 19 20 21 22 23 24 25 26 27 28 29 30 31 32 33 34 35 36 37 38 39 40 41 42 43 44 45 46 47 48 49 50
841
ASUS43 KGLD 061008
RWRGLD

GOODLAND FORECAST AREA HOURLY WEATHER ROUNDUP
NATIONAL WEATHER SERVICE GOODLAND KS
300 AM MST SAT FEB 06 2016

...OFFICIAL OBSERVATIONS...

CITY           SKY/WX    TMP DP  RH WIND       PRES   REMARKS
GOODLAND KS    CLOUDY    16   7  67 W12       30.26F WCI   3
HILL CITY KS   CLEAR     18  13  80 W3        30.30F
IMPERIAL NEB   CLOUDY    17   8  67 W10       30.24F WCI   5
MCCOOK NEB     CLOUDY    12   9  87 W10       30.27F WCI  -1
AKRON CO       CLOUDY    18   7  62 W13       30.22F WCI   5
BURLINGTON CO  CLOUDY    13   4  67 SW10      30.26F WCI   0
LIMON CO       CLOUDY    -2  -7  79 N9        30.25F
$$

...UNOFFICIAL OBSERVATIONS...

CITY           SKY/WX    TMP DP  RH WIND       PRES   REMARKS
COLBY KS       CLEAR     14  10  85 W13       30.27F WCI   0
GOVE KS          N/A     15  32 100 MISG        N/A
LENORA KS        N/A     21  32 100 MISG        N/A
NORTON KS      CLEAR     16  10  79 W10       30.27  WCI   3
SHARON SPRINGS   N/A     15   9  77 W7          N/A
KIT CARSON CO    N/A     15   8  75 MISG        N/A
YUMA CO          N/A     14   8  76 W8          N/A
$$




USA.gov is the U.S. government's official web portal to all federal, state and local government web resources and services.